Location: Edmonton
(53.5500°N, 113.5000°W)
Time: 13:39:33
(UTC-07:00)

N. Korean satellite - Pass Details

Date: 23 October 2019
Orbit: 456 x 506 km, 97.2° (Epoch: 12 November)

Event Time Altitude Azimuth Distance (km) Brightness Sun altitude
Rises 19:09:05 0° 190° (S) 2,470 10.4 -7.9°
Reaches altitude 10° 19:11:17 10° 202° (SSW) 1,606 9.6 -8.3°
Maximum altitude 19:14:20 29° 265° (W) 881 8.9 -8.7°
Drops below altitude 10° 19:17:26 10° 327° (NNW) 1,636 9.6 -9.2°
Sets 19:19:42 0° 339° (NNW) 2,528 10.4 -9.5°
